AL-FARABI 2 (43805 NORAD) Tracking and Keplerian Element Data

This shows tracking and keplerian element data for the satellite.

Feedback or suggestion? Click here.




ElementValue
Catalog43805
NameAL-FARABI 2
Epoch Orbit33793
Epoch Day34.65946332
Epoch Year2025
RAAN98.3672
Inclination97.4753
Eccentricity0.000757
Argument of Perigee201.4289
Mean Anonmoly158.6633
Mean Motion15.24572413
Decay Rate0.00028773
L11 43805U 18099AZ 25034.65946332 .00028773 00000+0 11665-2 0 9996
L22 43805 97.4753 98.3672 0007570 201.4289 158.6633 15.24572413337938



Live tracking and technical data element details for AL-FARABI 2 (NORAD 43805). AL-FARABI 2 can be tracked NOW for your location showing map with azimuth and elevation plus other details from your city location.







IsCatalogInMostPopularTable: catalog: 43805, numindb: 311
Update: records affected: 1



GetName: 43805 AL-FARABI 2

Hit Count: updated at: Thu, 15 May 2025 19:33:26 GMT